Simultaneous Nadir Overpasses (SNOs) Predictions

Prediction of SNOs between LANDSAT-8 and METOP-B Satellite Orbit:

Table of predicted SNOs for the next 14.0 days since TLE Epoch: 9/7/2024
Index Date (LANDSAT-8) Time (LANDSAT-8) Lat,Lon (LANDSAT-8) SZA (LANDSAT-8 ) Date (METOP-B) Time (METOP-B) Lat,Lon (METOP-B) SZA (METOP-B ) Distance(km) Time Diff (sec)
1 09/07/2024 23:16:41 81.38,-124.64 78.34 09/07/2024 23:15:36 81.38,-124.73 78.30 1.58 65
2 09/08/2024 00:06:07 -81.40, 43.30 101.61 09/08/2024 00:06:15 -81.39, 43.27 101.62 0.64 8
3 09/10/2024 18:50:55 81.38, -58.16 79.43 09/10/2024 18:49:57 81.38, -58.33 79.38 2.92 58
4 09/10/2024 19:40:21 -81.40, 109.80 100.52 09/10/2024 19:40:36 -81.39, 109.69 100.53 1.96 15
5 09/13/2024 14:25:06 81.39, 8.43 80.54 09/13/2024 14:24:15 81.39, 8.60 80.54 2.84 51
6 09/13/2024 15:14:33 -81.39, 176.01 99.46 09/13/2024 15:14:56 -81.39, 175.84 99.46 2.84 23
7 09/16/2024 09:59:17 81.38, 74.74 81.62 09/16/2024 09:58:35 81.39, 74.88 81.63 2.49 42
8 09/16/2024 10:48:43 -81.40,-117.28 98.32 09/16/2024 10:49:15 -81.39,-117.46 98.33 3.16 32
9 09/19/2024 05:33:25 81.40, 141.54 82.78 09/19/2024 05:32:53 81.40, 141.69 82.78 2.55 32



Historial Predications of SNOs between LANDSAT-8 and METOP-B
